User: anonymous   Login
Location: B?dargowo
(53.3916°N, 14.4413°E)
Time: 18:21:59
(UTC+00:00)
Language:

USA 281 - Orbit

View from above orbital plane
View from above orbital plane
View from above satellite
View from above satellite

Ground track
Ground track

The orbit data is extracted from the following two-line orbital elements,

1 43145U 18005A   24135.87357197 0.00000000  00000-0  00000-0 0    06
2 43145 106.0066 211.8408 0007063 258.0317 101.9683 13.48067297    09
Epoch (UTC): 14 May 2024 20:57:56
Eccentricity: 0.0007063
inclination: 106.0066°
perigee height: 1074 km
apogee height: 1084 km
right ascension of ascending node: 211.8408°
argument of perigee: 258.0317°
revolutions per day: 13.48067297
mean anomaly at epoch: 101.9683°
orbit number at epoch: 0

The dashed part of the orbit path shows where the satellite is in the earth's shadow,  

DLR